Munster, IN

3:51 PM CST on January 17, 2017 (GMT -0600)
Lansing Municipal

Weather History for KIGQ - December, 2012

Change the Weather History Date:

Thursday, December 6, 2012

  Actual Average (KGYY) Record (KGYY)
Temperature  
Mean Temperature 38 °F -  
Max Temperature 44 °F 36 °F 63 °F (1956)
Min Temperature 31 °F 23 °F -1 °F (1977)
Degree Days  
Heating Degree Days 28    
Moisture  
Dew Point 32 °F    
Average Humidity 78    
Maximum Humidity 87    
Minimum Humidity 66    
Precipitation  
Precipitation 0.00 in - - ()
Sea Level Pressure  
Sea Level Pressure 30.06 in    
Wind  
Wind Speed 8 mph (South)    
Max Wind Speed 12 mph    
Max Gust Speed -    
Visibility 10 miles    
Events      
Averages and records for this station are not official NWS values.
T = Trace of Precipitation, MM = Missing Value Source: NWS Daily Summary

Daily Weather History Graph

Daily Weather History Graph

Search for Another Location

Airport or City:

Trip Planner

Search our weather history database for the weather conditions in past years. The results will help you decide how hot, cold, wet, or windy it might be!

Date:

Astronomy

Dec. 06, 2012 Rise Set
Actual Time 7:02 AM CST 4:20 PM CST
Civil Twilight 6:31 AM CST 4:51 PM CST
Nautical Twilight 5:56 AM CST 5:25 PM CST
Astronomical Twilight 5:23 AM CST 5:59 PM CST
Moon No Moon Rise 11:50 AM CST (12/6)
Length of Visible Light 10h 19m
Length of Day
9h 17m
Waning Gibbous, 49% of the Moon is Illuminated
Dec 6
Waning Gibbous
Dec 13
New
Dec 19
First Quarter
Dec 28
Full
Jan 4
Last Quarter

Hourly Weather History & Observations

Time (CST) Temp. Windchill Dew Point Humidity Pressure Visibility Wind Dir Wind Speed Gust Speed Precip Events Conditions
12:15 AM 32.0 °F 23.0 °F 26.6 °F 80% 30.22 in 10.0 mi SSE 11.5 mph - N/A   Clear
12:35 AM 31.8 °F 26.2 °F 26.6 °F 81% 30.22 in 10.0 mi SSE 5.8 mph - N/A   Clear
12:55 AM 31.6 °F 24.4 °F 26.6 °F 82% 30.21 in 10.0 mi SSE 8.1 mph - N/A   Clear
1:15 AM 31.3 °F 24.7 °F 26.2 °F 82% 30.22 in 10.0 mi SSE 6.9 mph - N/A   Clear
1:35 AM 31.5 °F 25.8 °F 26.2 °F 81% 30.22 in 10.0 mi SSE 5.8 mph - N/A   Clear
1:55 AM 31.3 °F 25.6 °F 26.4 °F 82% 30.22 in 10.0 mi SE 5.8 mph - N/A   Clear
2:15 AM 31.5 °F 24.9 °F 26.4 °F 82% 30.22 in 10.0 mi SSE 6.9 mph - N/A   Clear
2:35 AM 31.5 °F 24.9 °F 26.2 °F 81% 30.22 in 10.0 mi SE 6.9 mph - N/A   Clear
2:55 AM 31.6 °F 23.1 °F 26.2 °F 80% 30.20 in 10.0 mi SE 10.4 mph - N/A   Clear
3:15 AM 31.1 °F 23.7 °F 26.1 °F 82% 30.19 in 10.0 mi SSE 8.1 mph - N/A   Clear
3:35 AM 31.1 °F 23.7 °F 25.7 °F 80% 30.19 in 10.0 mi SSE 8.1 mph - N/A   Clear
3:55 AM 31.1 °F 23.7 °F 25.7 °F 80% 30.18 in 10.0 mi SE 8.1 mph - N/A   Scattered Clouds
4:15 AM 31.6 °F 23.7 °F 26.1 °F 80% 30.18 in 10.0 mi SSE 9.2 mph - N/A   Scattered Clouds
4:35 AM 31.5 °F 23.5 °F 26.1 °F 80% 30.18 in 10.0 mi SSE 9.2 mph - N/A   Clear
4:55 AM 31.5 °F 22.9 °F 26.1 °F 80% 30.17 in 10.0 mi SSE 10.4 mph - N/A   Clear
5:15 AM 31.6 °F 23.7 °F 26.2 °F 80% 30.17 in 10.0 mi SSE 9.2 mph - N/A   Clear
5:35 AM 31.5 °F 22.9 °F 26.2 °F 81% 30.17 in 10.0 mi SSE 10.4 mph - N/A   Clear
5:55 AM 31.1 °F 24.5 °F 26.2 °F 82% 30.17 in 10.0 mi SSE 6.9 mph - N/A   Clear
6:15 AM 31.3 °F 23.3 °F 26.6 °F 83% 30.16 in 10.0 mi SSE 9.2 mph - N/A   Clear
6:35 AM 31.6 °F 24.4 °F 26.6 °F 82% 30.15 in 10.0 mi SSE 8.1 mph - N/A   Clear
6:55 AM 31.8 °F 23.9 °F 27.0 °F 82% 30.14 in 10.0 mi SSE 9.2 mph - N/A   Clear
7:15 AM 31.8 °F 25.4 °F 27.0 °F 82% 30.14 in 10.0 mi SE 6.9 mph - N/A   Clear
7:55 AM 32.0 °F 24.2 °F 27.1 °F 82% 30.13 in 10.0 mi SSE 9.2 mph - N/A   Clear
8:15 AM 32.0 °F 24.8 °F 27.3 °F 83% 30.13 in 10.0 mi SSE 8.1 mph - N/A   Clear
8:35 AM 32.7 °F 27.3 °F 28.0 °F 83% 30.13 in 10.0 mi SSE 5.8 mph - N/A   Clear
8:55 AM 32.9 °F 25.3 °F 28.0 °F 82% 30.13 in 10.0 mi SSE 9.2 mph - N/A   Clear
9:15 AM 33.8 °F 26.4 °F 28.4 °F 81% 30.12 in 10.0 mi SSE 9.2 mph - N/A   Clear
9:35 AM 34.5 °F 29.4 °F 28.9 °F 80% 30.12 in 10.0 mi SSE 5.8 mph - N/A   Clear
9:55 AM 36.1 °F 28.2 °F 29.7 °F 77% 30.12 in 10.0 mi South 11.5 mph - N/A   Clear
10:15 AM 36.7 °F 29.9 °F 29.8 °F 76% 30.11 in 10.0 mi South 9.2 mph - N/A   Clear
10:35 AM 37.4 °F 30.8 °F 30.2 °F 75% 30.11 in 10.0 mi South 9.2 mph - N/A   Clear
10:55 AM 37.6 °F 31.0 °F 30.7 °F 76% 30.10 in 10.0 mi South 9.2 mph - N/A   Clear
11:15 AM 38.5 °F 32.7 °F 31.5 °F 76% 30.08 in 10.0 mi South 8.1 mph - N/A   Clear
11:35 AM 39.2 °F 33.0 °F 31.8 °F 75% 30.06 in 10.0 mi South 9.2 mph - N/A   Clear
11:55 AM 41.2 °F 34.5 °F 32.0 °F 70% 30.04 in 10.0 mi South 11.5 mph - N/A   Clear
12:15 PM 41.5 °F 35.4 °F 32.4 °F 70% 30.03 in 10.0 mi South 10.4 mph - N/A   Clear
12:35 PM 42.8 °F 38.6 °F 32.0 °F 66% 30.02 in 10.0 mi South 6.9 mph - N/A   Clear
12:55 PM 42.8 °F 38.0 °F 32.0 °F 66% 30.01 in 10.0 mi South 8.1 mph - N/A   Scattered Clouds
1:15 PM 42.4 °F 37.5 °F 33.3 °F 70% 30.00 in 10.0 mi South 8.1 mph - N/A   Scattered Clouds
1:35 PM 42.8 °F 37.5 °F 33.3 °F 69% 29.99 in 10.0 mi South 9.2 mph - N/A   Clear
1:55 PM 42.8 °F 37.5 °F 33.3 °F 69% 29.98 in 10.0 mi South 9.2 mph - N/A   Clear
2:15 PM 42.8 °F 37.5 °F 33.3 °F 69% 29.98 in 10.0 mi South 9.2 mph - N/A   Clear
2:35 PM 43.0 °F 37.2 °F 33.4 °F 69% 29.97 in 10.0 mi South 10.4 mph - N/A   Clear
2:55 PM 42.4 °F 36.5 °F 33.3 °F 70% 29.96 in 10.0 mi South 10.4 mph - N/A   Clear
3:15 PM 42.6 °F 37.8 °F 33.8 °F 71% 29.96 in 10.0 mi South 8.1 mph - N/A   Clear
3:35 PM 42.4 °F 39.6 °F 34.2 °F 72% 29.96 in 10.0 mi South 4.6 mph - N/A   Clear
3:55 PM 42.1 °F 37.7 °F 34.7 °F 75% 29.96 in 10.0 mi SSE 6.9 mph - N/A   Clear
4:15 PM 42.3 °F 39.4 °F 35.1 °F 76% 29.96 in 10.0 mi SSE 4.6 mph - N/A   Clear
4:35 PM 42.3 °F 37.9 °F 35.6 °F 77% 29.97 in 10.0 mi South 6.9 mph - N/A   Scattered Clouds
4:55 PM 42.1 °F 37.7 °F 36.0 °F 79% 29.96 in 10.0 mi South 6.9 mph - N/A   Mostly Cloudy
5:15 PM 42.3 °F 38.6 °F 36.0 °F 78% 29.96 in 10.0 mi SSE 5.8 mph - N/A   Mostly Cloudy
5:35 PM 42.4 °F 38.1 °F 36.5 °F 79% 29.96 in 10.0 mi South 6.9 mph - N/A   Mostly Cloudy
5:55 PM 42.8 °F 39.3 °F 37.4 °F 81% 29.95 in 10.0 mi SSE 5.8 mph - N/A   Overcast
6:15 PM 43.0 °F 38.8 °F 36.7 °F 78% 29.94 in 10.0 mi South 6.9 mph - N/A   Overcast
6:35 PM 42.8 °F 38.6 °F 37.4 °F 81% 29.94 in 10.0 mi SSE 6.9 mph - N/A   Overcast
6:55 PM 42.8 °F 37.5 °F 37.4 °F 81% 29.94 in 10.0 mi South 9.2 mph - N/A   Overcast
7:15 PM 43.2 °F 37.9 °F 36.9 °F 78% 29.94 in 10.0 mi South 9.2 mph - N/A   Overcast
7:35 PM 43.2 °F 37.4 °F 36.9 °F 78% 29.93 in 10.0 mi South 10.4 mph - N/A   Overcast
7:55 PM 43.2 °F 37.4 °F 36.9 °F 78% 29.93 in 10.0 mi South 10.4 mph - N/A   Overcast
8:15 PM 43.0 °F 37.2 °F 36.9 °F 79% 29.93 in 10.0 mi South 10.4 mph - N/A   Overcast
8:35 PM 43.0 °F 38.2 °F 36.9 °F 79% 29.93 in 10.0 mi South 8.1 mph - N/A   Overcast
8:55 PM 42.4 °F 38.8 °F 36.9 °F 81% 29.93 in 10.0 mi SSW 5.8 mph - N/A   Mostly Cloudy
9:15 PM 42.4 °F 38.8 °F 37.0 °F 81% 29.94 in 10.0 mi South 5.8 mph - N/A   Mostly Cloudy
9:35 PM 43.0 °F 39.5 °F 37.4 °F 81% 29.94 in 10.0 mi SSW 5.8 mph - N/A   Overcast
9:55 PM 43.3 °F 38.1 °F 37.4 °F 80% 29.93 in 10.0 mi South 9.2 mph - N/A   Overcast
10:15 PM 43.0 °F 38.8 °F 37.4 °F 81% 29.93 in 10.0 mi SSW 6.9 mph - N/A   Overcast
10:35 PM 44.6 °F 41.4 °F 37.4 °F 76% 29.95 in 10.0 mi West 5.8 mph - N/A   Overcast
10:55 PM 44.6 °F 43.1 °F 37.4 °F 76% 29.95 in 10.0 mi SW 3.5 mph - N/A   Overcast
11:15 PM 44.1 °F 42.5 °F 37.8 °F 78% 29.94 in 10.0 mi WSW 3.5 mph - N/A   Overcast
11:35 PM 43.7 °F 41.1 °F 38.1 °F 81% 29.94 in 10.0 mi SSW 4.6 mph - N/A   Overcast
11:55 PM 42.8 °F 40.1 °F 39.2 °F 87% 29.94 in 10.0 mi SW 4.6 mph - N/A   Overcast